This is the latest recevied weather packets stored in our database for station/object KA1AL. If no packets are shown the sender has not sent any weather packets the latest 10 day(s).
| Time | Temp. | Humidity | Pressure | Rain* | Wind** | Luminosity | Snow |
|---|---|---|---|---|---|---|---|
| 1777571085 | 6.11° C | 99% | 1007.7 hPa | 1.78 mm | - | 107 W/m² | - |
| 1777570781 | 6.11° C | 99% | 1007.9 hPa | 1.78 mm | - | 92 W/m² | - |
| 1777570478 | 6.67° C | 99% | 1007.8 hPa | 0 mm | - | 183 W/m² | - |
| 1777570173 | 6.67° C | 99% | 1007.8 hPa | 0 mm | - | 175 W/m² | - |
| 1777569870 | 6.11° C | 99% | 1008 hPa | 0 mm | - | 184 W/m² | - |
| 1777569566 | 6.67° C | 99% | 1008 hPa | 1.27 mm | - | 263 W/m² | - |
| 1777569262 | 6.67° C | 99% | 1008 hPa | 1.27 mm | - | 254 W/m² | - |
| 1777568959 | 6.11° C | 99% | 1008.1 hPa | 1.27 mm | - | 237 W/m² | - |
| 1777568655 | 6.11° C | 99% | 1007.9 hPa | 0 mm | - | 154 W/m² | - |
| 1777568353 | 6.11° C | 99% | 1008.2 hPa | 0 mm | - | 158 W/m² | - |
| 1777568050 | 6.11° C | 99% | 1008.3 hPa | 0 mm | - | 147 W/m² | - |
| 1777567746 | 6.11° C | 99% | 1008 hPa | 1.78 mm | - | 169 W/m² | - |
| 1777567442 | 6.11° C | 99% | 1008.4 hPa | 1.78 mm | - | 167 W/m² | - |
| 1777567141 | 5.56° C | 99% | 1008.5 hPa | 0 mm | - | 135 W/m² | - |
| 1777566838 | 6.11° C | 99% | 1008.5 hPa | 1.27 mm | - | 127 W/m² | - |
| 1777566536 | 6.11° C | 99% | 1008.4 hPa | 1.27 mm | - | 135 W/m² | - |
| 1777566233 | 5.56° C | 99% | 1008.7 hPa | 1.78 mm | - | 179 W/m² | - |
| 1777565930 | 5.56° C | 99% | 1008.8 hPa | 1.78 mm | - | 160 W/m² | - |
| 1777565625 | 6.11° C | 99% | 1008.7 hPa | 0 mm | - | 144 W/m² | - |
| 1777565322 | 5.56° C | 99% | 1008.6 hPa | 1.27 mm | - | 121 W/m² | - |
| 1777565018 | 5.56° C | 99% | 1008.6 hPa | 1.27 mm | - | 137 W/m² | - |
| 1777564714 | 5.56° C | 99% | 1008.5 hPa | 0 mm | - | 170 W/m² | - |
| 1777564409 | 6.11° C | 99% | 1008.6 hPa | 1.78 mm | - | 189 W/m² | - |
| 1777564105 | 5.56° C | 99% | 1008.5 hPa | 1.78 mm | - | 193 W/m² | - |
| 1777563801 | 5.56° C | 99% | 1008.7 hPa | 0 mm | - | 134 W/m² | - |
* Rain latest hour (hover to see other rain measurements)
** Current wind speed in m/s (hover to see current wind gust speed)